Regional Weather Roundup
Issued by NWS

Home | Current Version | Previous Version | Graphics & Text | Print | Product List | Glossary Off
Versions: 1 2 3 4 5 6 7 8 9 10 11 12 13 14 15 16 17 18 19 20 21 22 23 24 25 26 27 28 29 30 31 32 33 34 35 36 37 38 39 40 41 42 43 44 45 46 47 48 49 50

000
ASUS43 KDTX 240610
RWRMI
MICHIGAN HOURLY REGIONAL WEATHER ROUNDUP
NATIONAL WEATHER SERVICE DETROIT/PONTIAC MI
200 AM EDT THU JUL 24 2014

NOTE: "FAIR" INDICATES FEW OR NO CLOUDS BELOW 12,000 FEET WITH NO
SIGNIFICANT WEATHER AND/OR OBSTRUCTION TO VISIBILITY.

MIZ047>049-052>055-059>063-066>070-074>076-081>083-240700-
SOUTHEAST LOWER MICHIGAN

CITY           SKY/WX    TMP DP  RH WIND       PRES   REMARKS
ADRIAN         CLOUDY    61  54  77 NE7       30.09F
6HR MIN TEMP:  61; 6HR MAX TEMP:  72;

ALMA           CLEAR     56  54  90 N6        30.13S
6HR MIN TEMP:  55; 6HR MAX TEMP:  66;

ANN ARBOR      PTCLDY    58  50  75 NE5       30.09S
BAD AXE        PTCLDY    56  52  86 N5        30.12S
6HR MIN TEMP:  54; 6HR MAX TEMP:  64;

DETROIT CITY   PTCLDY    62  49  62 N6        30.08S
6HR MIN TEMP:  62; 6HR MAX TEMP:  71;

DETROIT        MOCLDY    59  50  72 N6        30.08F
6HR MIN TEMP:  59; 6HR MAX TEMP:  71;

FLINT          CLEAR     55  51  86 CALM      30.11S
6HR MIN TEMP:  55; 6HR MAX TEMP:  70;

GROSSE ILE     PTCLDY    63  52  67 N8        30.06S
HILLSDALE      MOCLDY    62  57  82 NE3       30.10S
HOWELL         CLEAR     57  52  82 CALM      30.10F

CITY           SKY/WX    TMP DP  RH WIND       PRES   REMARKS
JACKSON        PTCLDY    57  54  89 CALM      30.11S
6HR MIN TEMP:  57; 6HR MAX TEMP:  71;

LAMBERTVILLE   CLEAR     59  54  82 CALM      30.08S
LANSING        MOCLDY    58  54  86 CALM      30.12S
6HR MIN TEMP:  58; 6HR MAX TEMP:  69;

LAPEER         NOT AVBL
MASON          CLEAR     57  53  86 CALM      30.11S
MONROE         PTCLDY    57  52  82 CALM      30.07S
MT. CLEMENS    PTCLDY    57  50  78 N8        30.07S
6HR MIN TEMP:  57; 6HR MAX TEMP:  67;

PONTIAC        PTCLDY    58  50  75 N6        30.09F
6HR MIN TEMP:  58; 6HR MAX TEMP:  68;

PORT HOPE        N/A     62  55  77 CALM      30.09S
6HR MIN TEMP:  62; 6HR MAX TEMP:  67;

PORT HURON     PTCLDY    50  50 100 CALM      30.09S
TRI CITIES     CLEAR     59  52  77 N7        30.13S
6HR MIN TEMP:  59; 6HR MAX TEMP:  68;

YPSILANTI      PTCLDY    61  50  67 NW3       30.09S
6HR MIN TEMP:  60; 6HR MAX TEMP:  74;

$$
MIZ043>046-050>051-056>058-064>065-071>073-077>080-240700-
SOUTHWEST LOWER MICHIGAN

CITY           SKY/WX    TMP DP  RH WIND       PRES   REMARKS
BATTLE CREEK   CLOUDY    60  54  80 NE6       30.12S
6HR MIN TEMP:  59; 6HR MAX TEMP:  73;

BENTON HARBOR  CLEAR     56  54  93 NE3       30.12S
6HR MIN TEMP:  56; 6HR MAX TEMP:  63;

BIG RAPIDS     CLEAR     53  48  83 CALM      30.15S
6HR MIN TEMP:  53; 6HR MAX TEMP:  65;

COLDWATER      CLEAR     62  57  83 NE6       30.10S
6HR MIN TEMP:  62; 6HR MAX TEMP:  73;

HOLLAND        CLEAR     59  52  77 CALM      30.14S
6HR MIN TEMP:  59; 6HR MAX TEMP:  68;

GRAND RAPIDS   CLOUDY    61  55  81 N6        30.13S
6HR MIN TEMP:  60; 6HR MAX TEMP:  71;

KALAMAZOO      CLEAR     56  52  86 N5        30.12S
6HR MIN TEMP:  56; 6HR MAX TEMP:  72;

MARSHALL       PTCLDY    57  55  92 CALM      30.11R
MUSKEGON       CLEAR     59  50  72 N6        30.15S
6HR MIN TEMP:  59; 6HR MAX TEMP:  70;

$$
MIZ016>042-240700-
NORTHERN LOWER MICHIGAN

CITY           SKY/WX    TMP DP  RH WIND       PRES   REMARKS
ALPENA         PTCLDY    54  49  83 NW5       30.13S
6HR MIN TEMP:  54; 6HR MAX TEMP:  67;

BEAVER ISLAND  CLEAR     48  48 100 CALM      30.17S
6HR MIN TEMP:  47; 6HR MAX TEMP:  66;

CADILLAC       CLEAR     50  49  97 CALM      30.16S
CHARLEVOIX     CLEAR     60  51  72 N3        30.18S
6HR MIN TEMP:  60; 6HR MAX TEMP:  66;

FRANKFORT      CLEAR     49  46  88 CALM      30.16S
GAYLORD        CLEAR     48  46  93 CALM      30.16S
6HR MIN TEMP:  48; 6HR MAX TEMP:  65;

GRAYLING       CLEAR     49  49 100 CALM      30.17R
6HR MIN TEMP:  49; 6HR MAX TEMP:  67;

HARBOR SPRINGS CLEAR     56  48  75 CALM      30.15S
HOUGHTON LAKE  CLEAR     53  48  83 NE5       30.16S
6HR MIN TEMP:  53; 6HR MAX TEMP:  67;

MANISTEE       CLEAR     48  46  93 CALM      30.16F
OSCODA         PTCLDY    53  48  84 NW6       30.12S
PELLSTON       CLEAR     49  47  93 CALM      30.16S
6HR MIN TEMP:  48; 6HR MAX TEMP:  66;

TRAVERSE CITY  CLEAR     52  49  89 CALM      30.16R
6HR MIN TEMP:  52; 6HR MAX TEMP:  67;

$$
MIZ007>008-015-240700-
EASTERN UPPER MICHIGAN

CITY           SKY/WX    TMP DP  RH WIND       PRES   REMARKS
KINROSS        CLEAR     46  46 100 W3        30.15S
6HR MIN TEMP:  46; 6HR MAX TEMP:  61;

MACKINAC ISLAN CLEAR     52  47  81 N7        30.15S
6HR MIN TEMP:  52; 6HR MAX TEMP:  63;

NEWBERRY       CLEAR     45  44  96 NW5       30.16F
S. S. MARIE    CLEAR     49  45  86 W5        30.14S
6HR MIN TEMP:  49; 6HR MAX TEMP:  60;

$$
MIZ004>006-011>014-085-240700-
CENTRAL UPPER MICHIGAN

CITY           SKY/WX    TMP DP  RH WIND       PRES   REMARKS
MANISTIQUE     CLEAR     46  44  93 CALM      30.17S
ESCANABA       CLEAR     46  43  87 W3        30.17S
6HR MIN TEMP:  46; 6HR MAX TEMP:  68;

MENOMINEE      PTCLDY    52  48  87 CALM      30.18S
6HR MIN TEMP:  52; 6HR MAX TEMP:  68;

SAWYER-GWINN   CLEAR     49  45  86 CALM      30.18S
6HR MIN TEMP:  48; 6HR MAX TEMP:  64;

$$
MIZ001>003-009>011-084-240700-
WESTERN UPPER MICHIGAN

CITY           SKY/WX    TMP DP  RH WIND       PRES   REMARKS
IRON MOUNTAIN  CLEAR     48  45  89 CALM      30.18F
6HR MIN TEMP:  48; 6HR MAX TEMP:  71;

HOUGHTON       CLEAR     50  45  83 NW6       30.17F
6HR MIN TEMP:  49; 6HR MAX TEMP:  67;

COPPER HARBOR    N/A     58  47  66 VRB5      30.15F
6HR MIN TEMP:  56; 6HR MAX TEMP:  63;

$$

ABBREVIATIONS USED IN REMARKS
   TC - TEMPERATURE IN CELSIUS
  WCI - WIND CHILL INDEX
   HX - HEAT INDEX
  VSB - VISIBILITY




USA.gov is the U.S. government's official web portal to all federal, state and local government web resources and services.